{"data":{"norad_id":66030,"intl_designator":"2025-232AB","name":"STARLINK-35431","alt_names":[],"object_type":"PAYLOAD","status":"ACTIVE","operator":null,"country":"US","launch_date":"2025-10-16","launch_site_code":"AFETR","launch_vehicle":null,"mission":null,"orbit_class":"UNKNOWN","rcs_meters":null,"size_class":null,"mass_kg":null,"dimensions":null,"purposes":["comms"],"wikipedia_slug":null,"has_3d_model":false,"image_url":null,"decayed_at":null,"tle_current":{"epoch":"2026-09-20T08:05:55.442400Z","epoch_age_seconds":117087,"freshness":"FRESH","line1":"1 66030U 25232AB  26263.33744725  .00005551  00000+0  17530-3 0  9997","line2":"2 66030  53.1571 276.4695 0000961  55.5916 304.5178 15.34398232 53281","mean_motion":15.34398232,"eccentricity":9.61e-5,"inclination_deg":53.1571,"raan_deg":276.4695,"arg_perigee_deg":55.5916,"mean_anomaly_deg":304.5178,"bstar":0.0001753,"rev_number":5328,"period_min":93.84786621678,"perigee_km":462.05108982866,"apogee_km":463.36590033282,"semimajor_km":6840.8454950807,"source":"CELESTRAK","updated_at":"2026-09-21T09:00:35.773403Z"}}}